[[{"header":{"parameterUnit":"m.s-1","parameterCategory":1,"la1":30.2991,"la2":30.254,"lo1":-89.0895,"lo2":-89.0444,"dy":0.0017,"dx":0.0017,"nx":28,"ny":28,"refTime":"2024-07-14T09:00:00:Z","depth":0,"parameterNumber":2,"parameterNumberName":"U-component_of_WINDS"},"data":[0,0,0,0,0,0,0,0,0,0,0,0,0,0,0,0,0,0,0,0,0,0,0,0,0,0,0,0,0,0,0,0,0,0,0,0,0,0,0,0,0,0,0,0,0,0,0,0,0,0,0,0,0,0,0,0,0,0,1.1615,1.1617,0,1.173,1.1731,1.1733,1.1763,1.1763,1.1762,1.1761,1.1879,1.1883,1.1887,0,0,0,0,0,0,0,0,0,0,0,0,0,1.1422,1.1425,1.1615,1.1617,1.1618,1.173,1.1732,1.1733,1.1763,1.1763,1.1762,1.1761,1.1878,1.1882,1.1887,0,0,0,0,0,0,0,0,0,0,0,0,0,1.1518,1.1426,1.1615,1.1647,1.1651,1.173,1.1732,1.1733,1.1764,1.1763,1.1762,1.1761,1.1877,1.1882,1.1888,1.1943,0,0,1.1905,1.1907,0,0,0,0,0,0,0,0,1.1513,1.1525,1.1641,1.1645,1.1649,1.1731,1.1707,1.1804,1.1764,1.1721,1.1761,1.176,1.1831,1.184,1.1864,1.1949,1.1954,1.1905,1.1909,1.1911,1.1913,0,0,0,0,0,0,0,1.1506,1.152,1.1661,1.1642,1.1648,1.1655,1.1668,1.1725,1.178,1.1724,1.1727,1.174,1.1833,1.1858,1.1867,1.1955,1.1905,1.191,1.1914,1.1916,1.209,1.2091,0,0,0,0,0,0,1.1494,1.1515,1.1657,1.1664,1.1577,1.1659,1.1673,1.1706,1.178,1.179,1.1741,1.1741,1.1849,1.186,1.1871,1.194,1.1911,1.1917,1.192,1.2088,1.209,1.2091,0,0,0,0,0,0,1.149,1.1506,1.1653,1.159,1.1609,1.1664,1.17,1.1709,1.1734,1.1792,1.1802,1.1757,1.1849,1.1863,1.1925,1.1944,1.1919,1.1924,1.2087,1.2089,1.209,1.2078,0,0,0,0,0,0,1.1484,1.1505,1.1526,1.159,1.1613,1.1704,1.1702,1.1712,1.1744,1.1745,1.181,1.1819,1.1849,1.1916,1.193,1.1952,1.1929,1.2085,1.2088,1.209,1.2077,1.2079,1.2081,0,0,0,0,0,1.1477,1.1519,1.1527,1.1544,1.1641,1.1705,1.1718,1.1751,1.1745,1.1768,1.1804,1.1817,1.194,1.1922,1.1938,1.1962,1.2084,1.2087,1.209,1.2076,1.2079,1.2081,0,0,0,0,0,0,1.1456,1.1528,1.1538,1.1602,1.1647,1.171,1.1739,1.1753,1.1801,1.1801,1.184,1.1855,1.1913,1.1944,1.1922,1.2018,1.2012,1.2018,1.1996,1.1999,1.2001,1.1992,1.1933,0,0,0,0,0,1.1459,1.1505,1.1565,1.1616,1.1638,1.1685,1.1714,1.1736,1.1784,1.1803,1.1845,1.1891,1.194,1.1972,1.202,1.2082,1.2095,1.2106,1.2108,1.2109,1.2114,1.2147,1.2152,1.21,1.21,1.21,0,0,1.1465,1.151,1.1537,1.1613,1.165,1.1697,1.1701,1.175,1.1784,1.1811,1.1871,1.1903,1.1957,1.2018,1.2047,1.2046,1.2131,1.2113,1.2113,1.2117,1.215,1.2155,1.2159,1.2102,1.2102,1.2101,0,0,1.15,1.154,1.1585,1.1622,1.1679,1.171,1.172,1.1781,1.1803,1.1864,1.1884,1.1926,1.201,1.2047,1.2077,1.2125,1.2138,1.2139,1.215,1.2182,1.2186,1.219,1.2206,1.2211,1.2144,1.2144,1.2144,0,1.1501,1.1572,1.1607,1.1655,1.1687,1.1713,1.1758,1.1793,1.1862,1.1884,1.1881,1.1986,1.2024,1.2094,1.2105,1.2129,1.2142,1.2132,1.2183,1.2187,1.2191,1.2206,1.2212,1.2144,1.2144,1.2144,1.2144,0,1.1569,1.1618,1.1648,1.1714,1.1749,1.1796,1.1838,1.1869,1.1888,1.1918,1.1979,1.2026,1.2084,1.2102,1.2121,1.2174,1.2171,1.2175,1.2169,1.2195,1.221,1.2216,1.2143,1.2143,1.2143,1.2144,0,0,1.1595,1.1678,1.1689,1.1718,1.1782,1.182,1.1867,1.1923,1.1949,1.1996,1.2036,1.2106,1.2109,1.2143,1.2167,1.2195,1.2227,1.2195,1.2197,1.2199,1.2287,1.2283,1.2289,1.2237,1.2238,1.2239,1.2282,0,1.1637,1.1722,1.1754,1.1824,1.1869,1.1893,1.1934,1.1978,1.2007,1.2049,1.2082,1.213,1.2132,1.2153,1.2182,1.2217,1.2246,1.2215,1.2274,1.2275,1.2258,1.2297,1.2293,1.2331,1.2288,1.2289,1.229,0,1.1697,1.1744,1.1818,1.1875,1.1895,1.1931,1.1984,1.2024,1.2073,1.2093,1.213,1.2151,1.2201,1.2192,1.2261,1.2239,1.2265,1.2286,1.2288,1.2294,1.2284,1.2303,1.2345,1.235,1.23,1.2299,1.2298,0,1.1706,1.1788,1.1842,1.1867,1.1935,1.196,1.1989,1.2037,1.2068,1.2115,1.2135,1.2187,1.2215,1.2254,1.2288,1.2279,1.2353,1.2348,1.237,1.2369,1.2384,1.2382,1.2429,1.2402,1.2402,1.2402,1.2402,0,1.1749,1.1793,1.1847,1.1881,1.193,1.1967,1.2015,1.2046,1.2088,1.2127,1.2152,1.2188,1.2232,1.2273,1.23,1.2352,1.2365,1.2381,1.2388,1.2379,1.2376,1.2396,1.2394,1.2403,1.2403,1.2403,1.2402,0,1.1768,1.1806,1.1867,1.1926,1.1942,1.1975,1.2026,1.2059,1.2089,1.2138,1.2152,1.22,1.225,1.2288,1.2354,1.2372,1.2426,1.2434,1.2409,1.2412,1.2432,1.2429,1.2492,1.2501,1.2469,1.2469,1.2469,0,1.1792,1.1827,1.1889,1.1917,1.1946,1.1991,1.2023,1.206,1.2091,1.2149,1.2174,1.2226,1.227,1.2349,1.2389,1.2439,1.2447,1.2465,1.2455,1.2444,1.2446,1.2443,1.2446,1.2466,1.2467,1.2467,1.2467,0,1.1831,1.1848,1.1892,1.1943,1.198,1.2022,1.2064,1.2085,1.213,1.2164,1.2215,1.2249,1.2315,1.2366,1.2419,1.2449,1.2465,1.247,1.2478,1.2468,1.2452,1.246,1.2412,1.2468,1.2468,1.2468,1.2468,1.2468,1.1853,1.1884,1.1932,1.198,1.2016,1.2054,1.2088,1.2122,1.2165,1.2222,1.2241,1.2294,1.2341,1.2414,1.2445,1.2486,1.2486,1.2497,1.25,1.2502,1.25,1.2446,1.2496,1.2496,1.2496,1.2496,1.2496,0,1.1891,1.1924,1.1968,1.2026,1.2063,1.2075,1.2122,1.2153,1.2199,1.2241,1.2283,1.2341,1.239,1.2434,1.2485,1.2509,1.2518,1.2521,1.2519,1.2526,1.2498,1.2486,1.2513,1.2513,1.2513,1.2513,1.2513,1.2513,1.1916,1.1969,1.1991,1.2061,1.2093,1.2145,1.217,1.2205,1.2239,1.2303,1.2344,1.2372,1.2415,1.2469,1.2514,1.2525,1.2542,1.2544,1.2557,1.253,1.2528,1.2526,1.2514,1.2548,1.2548,1.2581,1.2582,1.2582]},{"header":{"parameterUnit":"m.s-1","parameterCategory":1,"la1":30.2991,"la2":30.254,"lo1":-89.0895,"lo2":-89.0444,"dy":0.0017,"dx":0.0017,"nx":28,"ny":28,"refTime":"2024-07-14T09:00:00:Z","depth":0,"parameterNumber":3,"parameterNumberName":"V-component_of_WINDS"},"data":[0,0,0,0,0,0,0,0,0,0,0,0,0,0,0,0,0,0,0,0,0,0,0,0,0,0,0,0,0,0,0,0,0,0,0,0,0,0,0,0,0,0,0,0,0,0,0,0,0,0,0,0,0,0,0,0,0,0,5.1938,5.1938,0,5.1925,5.1925,5.1925,5.1862,5.186,5.1859,5.1857,5.1845,5.1846,5.1847,0,0,0,0,0,0,0,0,0,0,0,0,0,5.1909,5.1909,5.1938,5.1938,5.1938,5.1925,5.1925,5.1925,5.1862,5.186,5.1859,5.1857,5.1845,5.1846,5.1847,0,0,0,0,0,0,0,0,0,0,0,0,0,5.1911,5.191,5.1938,5.1905,5.1902,5.1925,5.1925,5.1925,5.1863,5.186,5.1858,5.1856,5.1844,5.1846,5.1847,5.1902,0,0,5.1852,5.1853,0,0,0,0,0,0,0,0,5.1911,5.1912,5.191,5.1907,5.1904,5.1893,5.191,5.1917,5.1863,5.1878,5.1857,5.1855,5.1863,5.1863,5.1865,5.1901,5.1901,5.1852,5.1853,5.1854,5.1854,0,0,0,0,0,0,0,5.1911,5.1913,5.1933,5.191,5.1906,5.1891,5.1889,5.1911,5.1883,5.1876,5.1871,5.1871,5.1861,5.1864,5.1864,5.19,5.1852,5.1854,5.1855,5.1855,5.198,5.1982,0,0,0,0,0,0,5.1916,5.1913,5.1934,5.1933,5.1902,5.1893,5.1891,5.1899,5.1882,5.1878,5.1873,5.1868,5.1862,5.1863,5.1864,5.1926,5.1854,5.1855,5.1856,5.1977,5.198,5.1983,0,0,0,0,0,0,5.1915,5.1918,5.1934,5.1922,5.1922,5.1896,5.1905,5.19,5.1903,5.188,5.1875,5.1881,5.186,5.1861,5.1893,5.1924,5.1856,5.1857,5.1975,5.1978,5.1982,5.2051,0,0,0,0,0,0,5.1915,5.1918,5.1939,5.1922,5.1923,5.1963,5.1907,5.1901,5.1906,5.1899,5.1886,5.1882,5.1859,5.1891,5.1894,5.1925,5.1859,5.1972,5.1976,5.198,5.2046,5.2056,5.2066,0,0,0,0,0,5.1914,5.1959,5.194,5.1943,5.1948,5.1965,5.1966,5.1938,5.1908,5.1929,5.1914,5.1882,5.1921,5.1894,5.1898,5.193,5.197,5.1975,5.198,5.2041,5.2054,5.2065,0,0,0,0,0,0,5.198,5.1956,5.1935,5.1977,5.1973,5.1955,5.1979,5.1953,5.1958,5.1952,5.1917,5.1915,5.1951,5.1943,5.1915,5.1982,5.194,5.1946,5.1985,5.1997,5.2007,5.2008,5.186,0,0,0,0,0,5.2,5.2015,5.1994,5.2032,5.2032,5.2006,5.2012,5.1991,5.1986,5.1985,5.1972,5.1969,5.198,5.1988,5.1997,5.2044,5.204,5.2068,5.2078,5.2087,5.2092,5.2116,5.2128,5.2,5.2,5.2,0,0,5.204,5.2029,5.2041,5.2045,5.204,5.2057,5.2005,5.2026,5.2038,5.1988,5.2016,5.2007,5.2001,5.204,5.2057,5.2035,5.2127,5.2093,5.21,5.2101,5.2123,5.2135,5.2146,5.2004,5.2003,5.2003,0,0,5.2122,5.2116,5.2146,5.2143,5.2135,5.2118,5.2126,5.2111,5.2103,5.213,5.2093,5.2107,5.2127,5.2124,5.2126,5.2206,5.2177,5.221,5.2262,5.2286,5.2296,5.2304,5.2333,5.2343,5.2216,5.2216,5.2216,0,5.2173,5.2197,5.2166,5.2188,5.2191,5.2147,5.2178,5.2175,5.2172,5.2175,5.2151,5.2174,5.2168,5.2205,5.2225,5.2227,5.2235,5.2211,5.2297,5.2305,5.2313,5.2339,5.235,5.222,5.222,5.2219,5.2219,0,5.226,5.2277,5.2303,5.23,5.2305,5.2332,5.2305,5.2315,5.2293,5.2278,5.2307,5.2297,5.2303,5.231,5.229,5.2345,5.2332,5.2303,5.226,5.2329,5.2354,5.2364,5.2226,5.2224,5.2223,5.2222,0,0,5.2383,5.2362,5.2372,5.237,5.2359,5.2372,5.2396,5.2402,5.241,5.2409,5.2429,5.2447,5.242,5.2421,5.24,5.242,5.2484,5.2389,5.2388,5.2406,5.2544,5.2565,5.2577,5.2465,5.2467,5.2468,5.2544,0,5.2461,5.2501,5.2474,5.2519,5.2534,5.2491,5.2513,5.2508,5.2495,5.2506,5.2491,5.2504,5.2468,5.2468,5.2487,5.2472,5.2511,5.2467,5.2483,5.2484,5.2485,5.259,5.2613,5.2685,5.2553,5.2555,5.2556,0,5.2557,5.2559,5.2606,5.2591,5.2596,5.2616,5.2618,5.2629,5.2623,5.2612,5.2614,5.2586,5.2609,5.2568,5.2599,5.2569,5.2574,5.2568,5.257,5.257,5.2524,5.2593,5.2707,5.2718,5.2571,5.257,5.2569,0,5.2641,5.2657,5.2686,5.2685,5.2669,5.2684,5.2678,5.2669,5.2674,5.2676,5.2679,5.2684,5.2687,5.2692,5.2667,5.2639,5.2701,5.2658,5.2693,5.2693,5.2707,5.2707,5.2824,5.2712,5.2711,5.2711,5.2711,0,5.273,5.276,5.2723,5.2742,5.2773,5.2742,5.2775,5.2764,5.2757,5.2772,5.2737,5.2752,5.2718,5.273,5.2711,5.2739,5.2741,5.2732,5.2727,5.2735,5.2736,5.2738,5.2732,5.2714,5.2713,5.2713,5.2712,0,5.283,5.2807,5.2836,5.2818,5.2814,5.2838,5.2823,5.2838,5.2823,5.2843,5.2845,5.2821,5.2833,5.2808,5.2817,5.2804,5.2844,5.2831,5.2846,5.2842,5.2878,5.2875,5.3,5.3015,5.2894,5.2895,5.2896,0,5.2888,5.291,5.2894,5.2901,5.2897,5.291,5.2914,5.2884,5.289,5.2885,5.2902,5.291,5.2916,5.2937,5.292,5.2927,5.2913,5.2956,5.2914,5.2922,5.2913,5.2912,5.2914,5.2965,5.2967,5.2968,5.2969,0,5.2994,5.2981,5.2989,5.2992,5.2999,5.3,5.2999,5.3008,5.2975,5.2984,5.2996,5.3,5.3009,5.3018,5.3021,5.3014,5.2987,5.2982,5.2991,5.2999,5.3007,5.3003,5.287,5.298,5.2979,5.2978,5.2977,5.2977,5.3074,5.3091,5.3082,5.3092,5.3088,5.3088,5.3102,5.3087,5.3096,5.3101,5.3083,5.3098,5.3091,5.3092,5.3089,5.31,5.3081,5.3093,5.3096,5.31,5.3105,5.3006,5.3101,5.3101,5.31,5.31,5.31,0,5.3177,5.3169,5.3178,5.3178,5.3186,5.3158,5.3156,5.3164,5.3178,5.3174,5.318,5.3193,5.3202,5.3185,5.3192,5.3204,5.3192,5.3207,5.3205,5.3204,5.3123,5.3114,5.3217,5.3217,5.3217,5.3217,5.3217,5.3217,5.3232,5.3259,5.3245,5.327,5.3262,5.3277,5.3277,5.3277,5.3273,5.329,5.3296,5.3286,5.3277,5.3282,5.3289,5.3284,5.3287,5.3307,5.3298,5.3222,5.321,5.3199,5.3191,5.3308,5.3309,5.3379,5.3379,5.338]}]]